QPF
0.00 0.00 0.00 0.00 0.00 0.00 0.00 0.00 0.00 0.00 0.00 0.00 0.00 0.00 0.00 0.00 0.00 0.00 0.00 0.00 0.00 0.00 0.00 0.00 0.04 0.12 0.09 0.00 0.00 0.00 0.00 0.00 0.00 0.01 0.01 0.01 0.00 0.00 0.00 0.00 0.00 0.00 0.00 0.00 0.00 0.00 0.00 0.00 0.00
0.00 0.00 0.00 0.00 0.00 0.00 0.00 0.00 0.00 0.00 0.00 0.00 0.00 0.00 0.00 0.00 0.00 0.00 0.00 0.00 0.00 0.00 0.00 0.00 0.01 0.07 0.05 0.00 0.00 0.00 0.00 0.00 0.00 0.00 0.02 0.01 0.00 0.00 0.00 0.00 0.00 0.00 0.00 0.00 0.00 0.00 0.00 0.00 0.00
0.00 0.00 0.00 0.00 0.00 0.00 0.00 0.00 0.00 0.00 0.00 0.00 0.00 0.00 0.00 0.00 0.00 0.00 0.00 0.00 0.00 0.00 0.00 0.00 0.00 0.00 0.00 0.00 0.00 0.00 0.00 0.00 0.00 0.00 0.00 0.00 0.00 0.01 0.00 0.00 0.00 0.00 0.00 0.00 0.00 0.00 0.00 0.00 0.00
0.00 0.00 0.00 0.00 0.00 0.00 0.00 0.00 0.00 0.00 0.00 0.00 0.00 0.00 0.00 0.00 0.00 0.00 0.00 0.00 0.00 0.00 0.00 0.00 0.00 0.00 0.00 0.00 0.00 0.00 0.00 0.00 0.00 0.01 0.01 0.00 0.00 0.00 0.00 0.00 0.00 0.00 0.00 0.00 0.00 0.00 0.00 0.00 0.00
0.00 0.00 0.00 0.00 0.00 0.00 0.00 0.00 0.00 0.00 0.00 0.00 0.00 0.00 0.00 0.00 0.00 0.00 0.00 0.00 0.00 0.00 0.00 0.00 0.00 0.00 0.00 0.00 0.00 0.00 0.00 0.00 0.00 0.00 0.01 0.00 0.00 0.00 0.00 0.00 0.00 0.00 0.00 0.00 0.00 0.00 0.00 0.00 0.00
0.00 0.00 0.00 0.00 0.00 0.00 0.00 0.00 0.00 0.00 0.00 0.00 0.00 0.00 0.00 0.00 0.00 0.00 0.00 0.00 0.00 0.00 0.00 0.00 0.00 0.00 0.00 0.00 0.00 0.00 0.00 0.00 0.00 0.00 0.00 0.00 0.00 0.00 0.00 0.00 0.00 0.00 0.00 0.00 0.00 0.00 0.00 0.00 0.00
0.00 0.00 0.00 0.00 0.00 0.00 0.00 0.00 0.00 0.00 0.00 0.00 0.00 0.00 0.00 0.00 0.00 0.00 0.00 0.00 0.00 0.00 0.00 0.00 0.00 0.00 0.00 0.00 0.00 0.00 0.00 0.00 0.00 0.00 0.00 0.00 0.00 0.00 0.00 0.00 0.00 0.00 0.00 0.00 0.00 0.00 0.00 0.00 0.00
0.00 0.00 0.00 0.00 0.00 0.00 0.00 0.00 0.00 0.00 0.00 0.00 0.00 0.00 0.00 0.00 0.00 0.00 0.00 0.00 0.00 0.00 0.00 0.00 0.00 0.00 0.00 0.00 0.00 0.00 0.00 0.00 0.00 0.00 0.00 0.00 0.00 0.00 0.00 0.00 0.00 0.00 0.00 0.00 0.00 0.00 0.00 0.00 0.00
0.00 0.00 0.00 0.00 0.00 0.00 0.00 0.00 0.00 0.00 0.00 0.00 0.00 0.00 0.00 0.00 0.00 0.00 0.00 0.00 0.00 0.00 0.00 0.00 0.00 0.00 0.00 0.00 0.00 0.00 0.00 0.00 0.00 0.00 0.00 0.00 0.00 0.00 0.00 0.00 0.00 0.00 0.00 0.00 0.00 0.00 0.00 0.00 0.00
0.00 0.00 0.00 0.00 0.00 0.00 0.00 0.00 0.00 0.00 0.00 0.00 0.00 0.00 0.00 0.00 0.00 0.00 0.00 0.00 0.00 0.00 0.00 0.00 0.00 0.00 0.00 0.00 0.00 0.00 0.00 0.00 0.00 0.00 0.00 0.00 0.00 0.00 0.00 0.00 0.00 0.00 0.00 0.00 0.00 0.00 0.00 0.00 0.00
0.00 0.00 0.00 0.00 0.00 0.00 0.00 0.00 0.00 0.00 0.00 0.00 0.00 0.00 0.00 0.00 0.00 0.00 0.00 0.00 0.00 0.00 0.00 0.00 0.00 0.00 0.00 0.00 0.00 0.00 0.00 0.00 0.00 0.00 0.00 0.00 0.00 0.00 0.00 0.00 0.00 0.00 0.00 0.00 0.00 0.00 0.00 0.00 0.00
0.00 0.00 0.00 0.00 0.00 0.00 0.00 0.00 0.00 0.00 0.00 0.00 0.00 0.00 0.00 0.00 0.00 0.00 0.00 0.00 0.00 0.00 0.00 0.00 0.00 0.00 0.00 0.00 0.00 0.00 0.00 0.00 0.00 0.00 0.00 0.00 0.00 0.00 0.00 0.00 0.00 0.00 0.00 0.00 0.00 0.00 0.00 0.00 0.00
0.00 0.00 0.00 0.00 0.00 0.00 0.00 0.00 0.00 0.00 0.00 0.00 0.00 0.00 0.00 0.00 0.00 0.00 0.00 0.00 0.00 0.00 0.00 0.00 0.00 0.00 0.00 0.00 0.00 0.00 0.00 0.00 0.00 0.00 0.00 0.00 0.00 0.00 0.00 0.00 0.00 0.00 0.00 0.00 0.00 0.00 0.00 0.00 0.00
0.00 0.00 0.00 0.00 0.00 0.00 0.00 0.00 0.00 0.00 0.00 0.00 0.00 0.00 0.00 0.00 0.00 0.00 0.00 0.00 0.00 0.00 0.00 0.00 0.00 0.00 0.00 0.00 0.00 0.00 0.00 0.00 0.00 0.00 0.00 0.00 0.00 0.00 0.00 0.00 0.00 0.00 0.00 0.00 0.00 0.00 0.00 0.00 0.00
0.00 0.00 0.00 0.00 0.00 0.00 0.00 0.00 0.00 0.00 0.00 0.00 0.00 0.00 0.00 0.00 0.00 0.00 0.00 0.00 0.00 0.00 0.00 0.00 0.00 0.00 0.00 0.00 0.00 0.00 0.00 0.00 0.00 0.00 0.00 0.00 0.00 0.00 0.00 0.00 0.00 0.00 0.00 0.00 0.00 0.00 0.00 0.00 0.00
0.00 0.00 0.00 0.00 0.00 0.00 0.00 0.00 0.00 0.00 0.00 0.00 0.00 0.00 0.00 0.00 0.00 0.00 0.00 0.00 0.00 0.00 0.00 0.00 0.00 0.00 0.00 0.00 0.00 0.00 0.00 0.00 0.00 0.00 0.00 0.00 0.00 0.00 0.00 0.00 0.00 0.00 0.00 0.00 0.00 0.00 0.00 0.00 0.00
0.00 0.00 0.00 0.00 0.00 0.00 0.00 0.00 0.00 0.00 0.00 0.00 0.00 0.00 0.00 0.00 0.00 0.00 0.00 0.00 0.00 0.00 0.00 0.00 0.00 0.00 0.00 0.00 0.00 0.00 0.00 0.00 0.00 0.00 0.00 0.00 0.00 0.00 0.00 0.00 0.00 0.00 0.00 0.00 0.00 0.00 0.00 0.00 0.00
0.00 0.00 0.00 0.00 0.00 0.00 0.00 0.00 0.00 0.00 0.00 0.00 0.00 0.00 0.00 0.00 0.00 0.00 0.00 0.00 0.00 0.00 0.00 0.00 0.00 0.00 0.00 0.00 0.00 0.00 0.00 0.00 0.00 0.00 0.00 0.00 0.00 0.00 0.00 0.00 0.00 0.00 0.00 0.00 0.00 0.00 0.00 0.00 0.00
0.00 0.00 0.00 0.00 0.00 0.00 0.00 0.00 0.00 0.00 0.00 0.00 0.00 0.00 0.00 0.00 0.00 0.00 0.00 0.00 0.00 0.00 0.00 0.00 0.00 0.00 0.00 0.00 0.00 0.00 0.00 0.00 0.00 0.00 0.00 0.00 0.00 0.00 0.00 0.00 0.00 0.00 0.00 0.00 0.00 0.00 0.00 0.00 0.00
0.00 0.00 0.00 0.00 0.00 0.00 0.00 0.00 0.00 0.00 0.00 0.00 0.00 0.00 0.00 0.00 0.00 0.00 0.00 0.00 0.00 0.00 0.00 0.00 0.00 0.00 0.00 0.00 0.00 0.00 0.00 0.00 0.00 0.00 0.00 0.00 0.00 0.00 0.00 0.00 0.01 0.00 0.01 0.00 0.00 0.00 0.00 0.00 0.00
0.00 0.00 0.00 0.00 0.00 0.00 0.00 0.00 0.00 0.00 0.00 0.00 0.00 0.00 0.00 0.00 0.00 0.00 0.00 0.00 0.00 0.00 0.00 0.00 0.00 0.00 0.00 0.00 0.00 0.00 0.00 0.00 0.00 0.00 0.00 0.00 0.00 0.00 0.00 0.00 0.00 0.01 0.01 0.01 0.00 0.00 0.01 0.00 0.00
0.00 0.00 0.00 0.00 0.00 0.00 0.00 0.00 0.00 0.00 0.00 0.00 0.00 0.00 0.00 0.00 0.00 0.00 0.00 0.00 0.00 0.00 0.00 0.00 0.00 0.00 0.00 0.00 0.00 0.00 0.00 0.00 0.00 0.00 0.00 0.00 0.00 0.00 0.00 0.00 0.00 0.00 0.00 0.01 0.00 0.00 0.00 0.01 0.00
0.00 0.00 0.00 0.00 0.00 0.00 0.00 0.00 0.00 0.00 0.00 0.00 0.00 0.00 0.00 0.00 0.00 0.00 0.00 0.00 0.00 0.00 0.00 0.00 0.00 0.00 0.00 0.00 0.00 0.00 0.00 0.00 0.00 0.00 0.00 0.00 0.00 0.01 0.01 0.01 0.01 0.00 0.00 0.00 0.00 0.00 0.00 0.00 0.00
0.00 0.00 0.00 0.00 0.00 0.00 0.00 0.00 0.00 0.00 0.00 0.00 0.00 0.00 0.00 0.00 0.00 0.00 0.00 0.00 0.00 0.00 0.00 0.00 0.00 0.00 0.00 0.00 0.00 0.00 0.00 0.00 0.00 0.00 0.00 0.00 0.00 0.00 0.01 0.01 0.02 0.02 0.02 0.01 0.00 0.00 0.00 0.00 0.00
0.01 0.01 0.01 0.01 0.01 0.00 0.00 0.00 0.00 0.00 0.00 0.00 0.00 0.00 0.00 0.00 0.00 0.00 0.00 0.00 0.00 0.00 0.00 0.00 0.00 0.00 0.00 0.00 0.00 0.00 0.00 0.00 0.00 0.00 0.00 0.00 0.00 0.00 0.00 0.00 0.00 0.01 0.02 0.03 0.03 0.02 0.01 0.01 0.01
0.01 0.00 0.00 0.00 0.00 0.00 0.00 0.00 0.00 0.00 0.00 0.00 0.00 0.00 0.00 0.00 0.00 0.00 0.00 0.00 0.00 0.00 0.00 0.00 0.00 0.00 0.00 0.00 0.00 0.00 0.00 0.00 0.00 0.00 0.00 0.00 0.00 0.00 0.00 0.00 0.00 0.00 0.01 0.01 0.02 0.02 0.02 0.03 0.03
0.01 0.02 0.00 0.00 0.00 0.00 0.00 0.00 0.00 0.00 0.00 0.00 0.00 0.00 0.00 0.00 0.00 0.00 0.00 0.00 0.00 0.00 0.00 0.00 0.00 0.00 0.00 0.00 0.00 0.00 0.00 0.00 0.00 0.00 0.00 0.00 0.00 0.00 0.00 0.00 0.00 0.00 0.00 0.00 0.01 0.01 0.02 0.04 0.05
0.00 0.00 0.02 0.04 0.02 0.00 0.00 0.00 0.00 0.00 0.00 0.00 0.00 0.00 0.00 0.00 0.00 0.00 0.00 0.00 0.00 0.00 0.00 0.00 0.00 0.00 0.00 0.00 0.00 0.00 0.00 0.00 0.00 0.00 0.00 0.00 0.00 0.00 0.00 0.00 0.00 0.00 0.00 0.00 0.00 0.00 0.01 0.02 0.03
0.00 0.00 0.01 0.01 0.00 0.00 0.00 0.00 0.00 0.00 0.00 0.00 0.00 0.00 0.00 0.00 0.00 0.00 0.00 0.00 0.00 0.00 0.00 0.00 0.00 0.00 0.00 0.00 0.00 0.00 0.00 0.00 0.00 0.00 0.00 0.00 0.00 0.00 0.00 0.00 0.00 0.00 0.00 0.00 0.00 0.00 0.00 0.00 0.00
0.00 0.00 0.00 0.01 0.01 0.00 0.00 0.00 0.00 0.00 0.00 0.00 0.00 0.00 0.00 0.00 0.00 0.00 0.00 0.00 0.00 0.00 0.00 0.00 0.00 0.00 0.00 0.00 0.00 0.00 0.00 0.00 0.00 0.00 0.00 0.00 0.00 0.00 0.00 0.00 0.00 0.00 0.00 0.00 0.00 0.00 0.00 0.00 0.00
MSLP
1010.86 1009.81 1009.46 1008.92 1008.14 1007.59 1008.74 1010.27 1010.48 1010.87 1011.11 1011.89 1012.01 1011.59 1012.05 1012.61 1012.98 1014.24 1015.63 1015.84 1015.86 1016.33 1017.11 1017.57 1018.09 1018.40 1018.62 1018.90 1019.12 1019.34 1019.45 1019.61 1019.67 1019.71 1019.76 1019.93 1020.11 1020.11 1020.10 1020.22 1020.37 1020.41 1020.53 1020.61 1020.68 1020.58 1020.72 1020.62 1020.62
1010.73 1009.86 1009.11 1008.00 1007.37 1007.53 1009.35 1010.16 1010.78 1011.37 1011.92 1012.23 1012.22 1012.06 1012.04 1013.13 1013.96 1015.07 1015.57 1016.09 1015.95 1016.42 1016.93 1017.33 1018.19 1018.39 1018.69 1018.99 1019.12 1019.27 1019.44 1019.64 1019.83 1019.86 1020.02 1020.19 1020.39 1020.34 1020.47 1020.63 1020.59 1020.63 1020.67 1020.86 1020.94 1021.00 1021.05 1021.00 1020.93
1010.40 1009.92 1008.46 1007.79 1007.60 1007.75 1009.52 1010.48 1011.23 1011.82 1012.15 1011.94 1012.10 1012.52 1012.78 1013.80 1014.53 1014.79 1015.68 1016.03 1016.05 1016.42 1016.73 1017.64 1018.35 1018.60 1018.81 1019.03 1019.23 1019.32 1019.45 1019.59 1019.80 1020.00 1020.07 1020.35 1020.55 1020.63 1020.67 1020.91 1020.96 1020.96 1020.92 1020.94 1020.95 1021.15 1021.18 1021.17 1021.18
1010.10 1008.79 1008.68 1008.10 1008.57 1009.73 1010.15 1010.99 1011.45 1011.74 1012.05 1012.15 1012.25 1012.58 1013.96 1015.06 1014.98 1015.40 1015.93 1016.06 1016.27 1016.59 1016.92 1018.13 1018.53 1018.75 1018.99 1019.17 1019.37 1019.50 1019.60 1019.71 1019.76 1019.85 1020.18 1020.27 1020.51 1020.82 1020.92 1021.15 1021.23 1021.32 1021.33 1021.29 1021.34 1021.43 1021.42 1021.34 1021.28
1009.69 1008.99 1008.44 1008.87 1009.81 1010.60 1011.10 1011.61 1011.72 1011.66 1011.90 1012.18 1012.21 1012.86 1013.99 1015.16 1015.62 1015.84 1016.08 1016.28 1016.36 1016.78 1017.11 1018.10 1018.78 1018.95 1019.08 1019.31 1019.41 1019.60 1019.72 1019.83 1019.87 1019.97 1020.11 1020.29 1020.50 1020.81 1021.02 1021.35 1021.48 1021.56 1021.61 1021.66 1021.68 1021.75 1021.86 1021.79 1021.63
1009.49 1009.55 1008.73 1009.20 1010.29 1011.16 1011.65 1012.07 1011.83 1011.78 1012.06 1012.46 1012.49 1013.02 1014.44 1015.40 1015.56 1016.02 1016.23 1016.34 1016.49 1016.81 1017.33 1017.97 1018.82 1019.12 1019.29 1019.44 1019.58 1019.70 1019.78 1019.91 1020.01 1020.06 1020.13 1020.32 1020.36 1020.58 1020.99 1021.14 1021.45 1021.63 1021.71 1021.74 1021.85 1021.94 1022.07 1022.10 1022.04
1010.61 1009.94 1009.31 1009.74 1010.80 1011.41 1011.97 1012.43 1011.97 1012.02 1012.29 1012.90 1013.09 1013.01 1014.60 1015.22 1015.96 1016.29 1016.40 1016.41 1016.66 1016.91 1017.49 1017.83 1018.33 1018.98 1019.38 1019.44 1019.54 1019.68 1019.80 1019.90 1020.04 1020.18 1020.29 1020.40 1020.48 1020.50 1020.59 1020.98 1021.21 1021.38 1021.66 1021.81 1021.96 1022.17 1022.26 1022.32 1022.30
1011.68 1011.02 1010.66 1010.45 1010.98 1011.65 1012.55 1012.68 1012.91 1012.41 1013.07 1013.59 1013.61 1013.24 1014.31 1015.53 1016.21 1016.44 1016.59 1016.68 1016.89 1017.08 1017.30 1017.71 1018.00 1018.32 1018.50 1018.78 1019.41 1019.67 1019.88 1020.01 1020.16 1020.27 1020.42 1020.60 1020.66 1020.67 1020.73 1020.75 1020.83 1021.11 1021.34 1021.51 1021.79 1022.08 1022.28 1022.34 1022.43
1012.55 1011.55 1010.81 1011.14 1011.22 1012.05 1012.96 1012.79 1013.38 1013.55 1013.22 1013.60 1014.10 1014.31 1015.27 1015.87 1016.27 1016.43 1016.65 1016.88 1017.03 1017.24 1017.44 1017.37 1017.75 1018.10 1018.34 1018.53 1018.83 1019.58 1019.89 1020.00 1020.10 1020.17 1020.35 1020.54 1020.33 1020.18 1020.43 1020.66 1020.85 1021.03 1021.13 1021.31 1021.50 1021.71 1021.92 1022.11 1022.23
1012.50 1011.97 1011.41 1012.06 1012.09 1012.47 1013.17 1013.01 1013.33 1013.38 1013.44 1013.81 1014.35 1015.17 1015.63 1015.91 1016.03 1016.10 1016.21 1016.20 1016.65 1016.87 1017.14 1017.36 1017.40 1017.59 1018.08 1018.39 1018.47 1018.82 1018.92 1019.27 1019.46 1019.65 1019.73 1020.03 1019.80 1019.77 1019.81 1020.21 1020.75 1020.93 1021.17 1021.28 1021.32 1021.52 1021.75 1022.01 1021.63
1013.24 1012.57 1012.87 1013.37 1013.48 1013.36 1013.50 1013.61 1013.76 1013.32 1013.31 1013.49 1013.85 1014.75 1015.34 1015.67 1015.83 1015.89 1015.88 1015.95 1016.01 1016.05 1016.56 1017.11 1017.31 1017.39 1017.55 1017.95 1018.17 1018.35 1018.55 1018.73 1018.82 1018.91 1019.25 1019.39 1019.47 1019.60 1019.82 1019.97 1020.32 1020.63 1020.98 1020.94 1021.02 1021.22 1021.44 1021.24 1021.12
1013.65 1013.73 1013.72 1014.13 1014.57 1014.35 1014.03 1013.97 1013.83 1013.76 1013.49 1014.22 1014.39 1014.91 1015.08 1015.20 1015.33 1015.44 1015.56 1015.63 1015.81 1015.99 1016.19 1016.51 1016.69 1017.04 1017.45 1017.57 1017.67 1018.00 1018.23 1018.41 1018.40 1018.47 1018.71 1019.03 1019.31 1019.47 1019.59 1019.67 1019.68 1019.95 1020.08 1020.36 1020.30 1020.55 1020.71 1020.58 1020.78
1014.23 1014.05 1014.72 1014.92 1015.16 1014.98 1015.05 1014.56 1014.30 1014.09 1014.01 1014.69 1014.81 1015.17 1015.12 1015.16 1015.30 1015.34 1015.50 1015.66 1015.71 1015.67 1015.71 1015.94 1016.16 1016.48 1016.89 1017.63 1017.53 1017.36 1017.60 1017.92 1018.05 1017.97 1018.17 1018.51 1018.68 1018.94 1019.21 1019.31 1019.43 1019.48 1019.64 1019.78 1019.88 1019.97 1020.12 1020.19 1020.43
1014.37 1014.67 1015.26 1015.68 1015.59 1015.55 1015.47 1014.82 1015.07 1014.18 1014.19 1014.24 1014.81 1014.94 1015.11 1015.26 1015.30 1015.39 1015.39 1015.29 1015.35 1015.48 1015.59 1015.67 1015.73 1015.80 1016.14 1016.46 1017.19 1017.05 1016.84 1016.95 1017.16 1017.51 1017.58 1017.92 1018.19 1018.30 1018.52 1018.74 1018.91 1019.10 1019.23 1019.38 1019.57 1019.73 1019.80 1019.93 1020.01
1015.81 1015.75 1015.89 1015.86 1015.86 1015.75 1015.96 1015.05 1014.34 1014.43 1014.52 1014.50 1014.60 1014.81 1014.95 1015.21 1015.27 1015.35 1015.24 1015.19 1015.37 1015.46 1015.48 1015.53 1015.57 1015.49 1015.67 1015.92 1015.98 1016.23 1016.53 1016.69 1016.98 1016.89 1017.13 1017.31 1017.58 1017.82 1017.89 1018.10 1018.28 1018.47 1018.70 1018.94 1019.05 1019.15 1019.32 1019.54 1019.61
1016.44 1016.22 1015.53 1015.25 1015.78 1015.99 1016.13 1014.01 1013.66 1013.86 1014.16 1014.39 1014.42 1014.47 1014.60 1014.78 1014.91 1014.94 1014.91 1015.07 1015.37 1015.58 1015.52 1015.37 1015.36 1015.48 1015.54 1015.53 1015.50 1015.60 1015.77 1015.96 1016.74 1017.00 1016.87 1017.01 1017.18 1017.34 1017.47 1017.50 1017.57 1017.81 1018.04 1018.27 1018.43 1018.59 1018.66 1018.75 1018.92
1016.67 1015.69 1015.53 1015.22 1015.85 1015.88 1016.05 1014.47 1013.98 1014.54 1014.76 1014.57 1014.36 1014.35 1014.25 1014.27 1014.52 1014.54 1014.67 1015.32 1015.72 1015.70 1015.57 1015.49 1015.35 1015.31 1015.25 1015.17 1015.08 1015.17 1015.28 1015.37 1015.47 1015.87 1015.87 1016.39 1016.64 1016.80 1016.95 1016.94 1016.97 1017.20 1017.41 1017.55 1017.87 1018.07 1018.23 1018.23 1018.22
1016.03 1016.31 1015.74 1015.49 1016.01 1016.19 1015.77 1015.05 1014.59 1015.20 1014.98 1014.75 1014.56 1014.29 1014.03 1013.99 1013.99 1014.20 1015.17 1015.95 1016.21 1016.16 1016.06 1015.83 1015.58 1015.37 1015.17 1015.04 1014.94 1014.86 1014.85 1014.88 1015.00 1015.37 1016.00 1016.06 1016.18 1016.49 1016.73 1016.70 1016.62 1016.76 1017.03 1017.17 1017.37 1017.62 1017.76 1017.78 1017.79
1016.55 1016.13 1015.95 1016.00 1016.41 1016.64 1015.91 1015.14 1014.80 1014.72 1014.78 1014.57 1014.48 1014.23 1013.87 1013.73 1013.81 1014.67 1015.79 1016.30 1016.47 1016.41 1016.42 1016.25 1015.99 1015.68 1015.36 1014.95 1014.67 1014.57 1014.48 1014.56 1014.65 1015.01 1015.59 1015.91 1016.18 1016.39 1016.68 1016.83 1016.71 1016.60 1016.89 1016.95 1017.05 1017.16 1017.29 1017.35 1017.42
1017.16 1016.92 1016.64 1016.63 1017.05 1017.30 1016.19 1015.07 1014.62 1014.41 1014.13 1014.10 1013.93 1013.59 1013.36 1013.33 1013.73 1015.06 1016.12 1016.53 1016.75 1016.94 1016.95 1016.68 1016.45 1016.09 1015.66 1015.27 1014.82 1014.54 1014.30 1014.13 1014.18 1014.25 1014.48 1015.03 1015.68 1016.09 1016.43 1016.62 1016.74 1016.81 1016.81 1016.85 1017.05 1016.96 1016.95 1016.98 1017.01
1017.11 1017.23 1017.10 1017.33 1017.68 1017.50 1016.81 1014.82 1013.87 1013.24 1013.22 1013.11 1013.14 1013.26 1013.33 1013.65 1014.44 1015.46 1016.31 1016.78 1017.19 1017.48 1017.49 1017.24 1017.05 1016.66 1016.26 1015.58 1015.19 1014.77 1014.58 1014.54 1014.44 1014.42 1014.51 1014.52 1015.09 1015.59 1015.92 1016.17 1016.27 1016.44 1016.62 1016.69 1016.78 1016.92 1016.80 1016.63 1016.72
1017.13 1017.57 1017.84 1017.95 1018.27 1017.17 1016.88 1014.21 1012.70 1012.55 1012.71 1012.93 1012.86 1012.94 1013.29 1014.05 1014.95 1015.79 1016.43 1017.09 1017.69 1018.13 1018.19 1017.90 1017.73 1017.41 1016.93 1016.40 1015.27 1015.01 1014.80 1014.48 1014.30 1014.36 1014.41 1014.57 1014.77 1015.10 1015.36 1015.65 1015.83 1015.93 1016.03 1016.15 1016.23 1016.39 1016.46 1016.49 1016.27
1017.49 1017.67 1018.09 1018.37 1018.29 1017.73 1016.70 1016.09 1012.42 1012.10 1011.95 1011.80 1011.81 1012.47 1012.82 1013.84 1015.04 1015.95 1016.81 1017.54 1018.19 1018.62 1018.73 1018.60 1018.40 1018.20 1017.79 1017.30 1016.72 1016.15 1015.92 1015.82 1015.76 1015.61 1015.38 1015.28 1015.04 1014.77 1014.78 1014.97 1015.18 1015.44 1015.63 1015.69 1015.84 1015.87 1015.95 1015.92 1015.86
1017.89 1018.36 1018.60 1018.70 1018.54 1017.15 1016.27 1015.31 1011.52 1011.20 1011.36 1011.23 1011.63 1012.16 1013.20 1014.48 1015.46 1016.45 1017.33 1017.91 1018.55 1019.07 1019.22 1019.25 1019.04 1019.00 1018.70 1018.24 1017.93 1017.52 1017.10 1016.92 1016.95 1016.83 1016.70 1016.41 1016.27 1016.10 1016.15 1015.91 1015.86 1015.11 1015.10 1015.11 1015.17 1015.22 1015.26 1015.30 1015.27
1017.92 1018.20 1018.45 1018.59 1018.32 1016.12 1015.25 1014.65 1011.65 1010.77 1010.72 1010.90 1011.49 1012.40 1013.71 1014.79 1015.85 1016.73 1017.43 1018.26 1019.00 1019.43 1019.59 1019.56 1019.60 1019.62 1019.53 1019.27 1018.95 1018.80 1018.44 1018.07 1017.82 1017.76 1017.52 1017.21 1016.83 1016.76 1016.78 1016.63 1016.31 1016.01 1015.74 1015.23 1014.81 1014.67 1014.71 1014.73 1014.64
1017.19 1017.52 1017.19 1017.27 1017.01 1015.54 1015.34 1013.26 1011.14 1010.82 1011.15 1011.20 1011.49 1012.49 1013.91 1015.05 1016.05 1017.04 1017.95 1018.73 1019.47 1019.95 1020.15 1020.15 1020.13 1020.16 1020.24 1020.13 1019.89 1019.76 1019.59 1019.39 1019.22 1019.10 1018.82 1018.55 1018.22 1017.96 1017.79 1017.38 1016.93 1016.38 1015.79 1015.34 1015.07 1014.69 1014.27 1014.20 1014.18
1016.97 1016.63 1017.07 1017.41 1017.59 1016.43 1014.06 1012.75 1011.63 1011.53 1011.42 1011.09 1012.19 1012.68 1013.93 1015.14 1016.30 1017.37 1018.35 1019.00 1019.72 1020.23 1020.53 1020.67 1020.67 1020.75 1020.84 1020.77 1020.65 1020.48 1020.42 1020.27 1020.08 1019.87 1019.71 1019.46 1019.12 1018.71 1018.43 1018.01 1017.48 1016.94 1016.37 1015.94 1015.65 1015.26 1014.81 1014.58 1014.16
1016.02 1016.51 1017.27 1017.79 1016.87 1015.52 1013.11 1011.95 1010.37 1010.74 1010.91 1011.06 1011.85 1012.82 1013.89 1015.05 1016.33 1017.48 1018.46 1019.31 1020.02 1020.58 1020.86 1020.99 1021.13 1021.19 1021.39 1021.42 1021.36 1021.17 1021.10 1021.04 1020.87 1020.57 1020.41 1020.22 1019.90 1019.55 1019.13 1018.62 1018.12 1017.53 1017.09 1016.70 1016.29 1015.77 1015.29 1014.79 1014.49
1016.16 1016.35 1016.42 1016.42 1016.34 1014.87 1013.17 1011.05 1010.07 1009.41 1009.65 1010.38 1011.04 1012.48 1013.53 1014.80 1015.99 1017.26 1018.49 1019.43 1020.18 1020.74 1021.11 1021.38 1021.69 1021.85 1022.04 1022.04 1022.06 1021.88 1021.75 1021.73 1021.46 1021.25 1021.14 1020.96 1020.55 1020.15 1019.77 1019.31 1018.76 1018.22 1017.64 1017.24 1016.83 1016.45 1015.81 1015.71 1015.31
1015.24 1015.29 1015.58 1015.83 1015.43 1014.95 1013.76 1010.41 1010.14 1009.94 1009.81 1009.85 1010.55 1011.46 1012.79 1014.35 1015.90 1017.13 1018.36 1019.37 1020.08 1020.78 1021.23 1021.63 1022.04 1022.34 1022.66 1022.64 1022.55 1022.32 1022.28 1022.26 1022.09 1021.97 1021.85 1021.61 1021.19 1020.76 1020.34 1019.85 1019.34 1018.79 1018.30 1017.85 1017.33 1017.02 1016.78 1016.43 1015.89
Thickness
5770 5779 5783 5776 5752 5755 5728 5720 5742 5733 5734 5740 5742 5741 5731 5730 5720 5706 5723 5725 5725 5721 5716 5713 5710 5707 5705 5703 5701 5700 5699 5697 5697 5697 5696 5695 5693 5693 5692 5691 5690 5691 5690 5691 5691 5692 5691 5693 5693
5769 5776 5778 5771 5748 5733 5721 5738 5727 5733 5736 5740 5740 5740 5737 5720 5730 5721 5720 5723 5724 5721 5717 5714 5708 5706 5704 5702 5701 5701 5699 5697 5696 5696 5695 5694 5691 5691 5690 5689 5689 5689 5688 5688 5689 5689 5689 5689 5689
5770 5774 5764 5754 5747 5734 5720 5734 5731 5734 5738 5740 5735 5741 5736 5722 5729 5729 5728 5726 5724 5720 5718 5713 5707 5705 5703 5702 5700 5699 5699 5697 5696 5695 5694 5693 5691 5690 5689 5687 5687 5688 5687 5687 5687 5687 5687 5688 5687
5762 5769 5764 5743 5728 5730 5732 5733 5735 5733 5737 5742 5740 5728 5731 5729 5729 5731 5729 5726 5725 5721 5718 5710 5707 5704 5702 5701 5699 5698 5697 5696 5695 5696 5693 5693 5692 5689 5688 5686 5686 5685 5686 5686 5685 5684 5685 5685 5685
5763 5757 5737 5728 5722 5727 5733 5734 5736 5731 5734 5735 5740 5725 5722 5728 5730 5730 5728 5726 5725 5721 5717 5710 5705 5704 5702 5700 5699 5697 5696 5695 5694 5693 5693 5692 5691 5688 5687 5685 5684 5684 5683 5683 5683 5683 5682 5682 5682
5741 5745 5728 5717 5718 5724 5729 5731 5734 5733 5735 5732 5732 5729 5720 5729 5729 5727 5727 5725 5724 5721 5717 5711 5706 5703 5701 5699 5698 5697 5696 5695 5694 5692 5691 5690 5691 5689 5687 5686 5684 5683 5682 5682 5681 5681 5680 5679 5679
5724 5727 5722 5724 5714 5716 5722 5731 5729 5730 5730 5724 5733 5722 5722 5725 5726 5726 5726 5726 5722 5720 5715 5712 5708 5704 5701 5700 5699 5698 5696 5695 5694 5692 5690 5689 5689 5689 5689 5685 5684 5683 5680 5679 5678 5677 5676 5675 5675
5723 5722 5711 5720 5711 5709 5719 5723 5726 5729 5719 5730 5731 5720 5716 5721 5723 5724 5723 5722 5720 5718 5716 5712 5710 5707 5706 5704 5701 5698 5695 5693 5691 5690 5689 5688 5686 5686 5686 5686 5684 5681 5680 5679 5677 5675 5673 5672 5671
5719 5706 5705 5707 5712 5710 5717 5716 5720 5725 5723 5724 5723 5723 5721 5723 5723 5721 5718 5717 5717 5716 5715 5714 5711 5708 5706 5704 5702 5697 5694 5693 5692 5691 5689 5689 5689 5690 5688 5686 5683 5681 5679 5677 5676 5674 5673 5672 5670
5704 5698 5704 5714 5716 5710 5710 5715 5715 5715 5715 5715 5716 5718 5719 5720 5720 5718 5716 5717 5715 5715 5716 5715 5713 5711 5707 5704 5702 5700 5699 5696 5694 5693 5692 5690 5691 5690 5690 5687 5684 5682 5679 5677 5675 5672 5670 5668 5669
5694 5690 5697 5697 5703 5709 5705 5706 5712 5713 5707 5717 5715 5715 5717 5717 5717 5717 5718 5719 5720 5722 5720 5717 5714 5712 5710 5707 5704 5703 5700 5699 5697 5696 5693 5692 5691 5690 5688 5686 5683 5680 5677 5676 5675 5673 5670 5670 5669
5678 5685 5691 5690 5690 5695 5696 5706 5703 5707 5712 5715 5718 5716 5717 5716 5717 5717 5717 5718 5719 5720 5721 5720 5717 5715 5711 5710 5708 5705 5702 5700 5699 5698 5695 5692 5689 5688 5686 5684 5684 5682 5680 5677 5676 5673 5671 5672 5669
5671 5678 5676 5682 5681 5687 5690 5691 5695 5699 5712 5709 5711 5709 5711 5714 5715 5717 5717 5717 5720 5720 5723 5722 5720 5718 5714 5708 5709 5709 5706 5703 5701 5700 5698 5694 5691 5688 5685 5683 5681 5680 5679 5677 5676 5674 5671 5669 5666
5671 5670 5667 5667 5673 5678 5677 5686 5684 5699 5708 5708 5704 5705 5708 5709 5711 5711 5712 5716 5719 5720 5720 5721 5721 5719 5716 5714 5707 5708 5708 5707 5704 5701 5699 5695 5692 5690 5687 5684 5681 5678 5676 5674 5672 5670 5668 5666 5664
5651 5647 5652 5657 5665 5667 5671 5671 5684 5695 5698 5697 5700 5702 5705 5705 5707 5705 5710 5714 5716 5716 5718 5718 5718 5718 5716 5714 5712 5709 5706 5705 5702 5701 5699 5696 5692 5689 5687 5685 5682 5678 5675 5672 5670 5668 5665 5663 5660
5634 5639 5637 5658 5659 5662 5661 5672 5691 5700 5695 5690 5696 5699 5702 5703 5704 5705 5711 5714 5714 5712 5712 5714 5715 5714 5713 5712 5711 5710 5708 5706 5698 5695 5695 5692 5690 5688 5686 5684 5682 5678 5675 5672 5669 5668 5666 5664 5661
5622 5629 5632 5647 5654 5654 5652 5666 5683 5685 5680 5683 5690 5694 5698 5701 5701 5703 5709 5708 5705 5706 5707 5708 5709 5708 5709 5709 5709 5707 5706 5705 5703 5698 5697 5691 5687 5686 5683 5681 5680 5676 5674 5672 5668 5665 5663 5661 5660
5618 5615 5632 5636 5644 5643 5647 5655 5669 5667 5671 5675 5681 5688 5693 5695 5698 5702 5700 5696 5695 5696 5698 5700 5702 5703 5704 5705 5704 5704 5703 5702 5699 5696 5689 5687 5685 5681 5678 5677 5676 5673 5670 5668 5665 5661 5659 5658 5656
5613 5623 5622 5630 5633 5629 5638 5649 5657 5667 5666 5670 5674 5679 5685 5690 5696 5694 5687 5686 5685 5687 5687 5689 5691 5693 5696 5698 5698 5698 5696 5696 5695 5690 5685 5681 5677 5673 5669 5666 5666 5666 5662 5660 5658 5655 5652 5650 5649
5600 5602 5608 5616 5619 5616 5629 5640 5653 5658 5663 5668 5672 5679 5684 5688 5690 5682 5676 5674 5674 5673 5674 5677 5679 5682 5685 5688 5690 5691 5692 5693 5691 5688 5685 5680 5673 5667 5663 5658 5654 5652 5651 5650 5647 5645 5643 5641 5640
5593 5592 5600 5600 5603 5609 5611 5626 5645 5660 5664 5671 5676 5677 5679 5678 5674 5670 5664 5663 5662 5659 5660 5663 5665 5668 5671 5676 5678 5680 5681 5679 5677 5676 5674 5673 5668 5661 5656 5651 5647 5643 5640 5638 5635 5632 5631 5629 5627
5578 5590 5588 5587 5581 5591 5605 5609 5645 5656 5657 5656 5662 5667 5668 5667 5663 5658 5655 5652 5647 5644 5645 5647 5648 5650 5654 5658 5667 5667 5667 5667 5668 5666 5665 5661 5656 5651 5646 5642 5638 5635 5633 5630 5627 5623 5620 5616 5616
5574 5581 5579 5576 5574 5578 5591 5583 5635 5649 5651 5659 5664 5662 5666 5662 5653 5647 5642 5637 5633 5629 5628 5629 5630 5631 5634 5637 5641 5644 5644 5644 5643 5642 5643 5641 5640 5638 5635 5632 5628 5625 5621 5619 5616 5613 5609 5608 5606
5565 5562 5562 5563 5561 5560 5583 5590 5632 5640 5646 5653 5655 5656 5653 5644 5639 5632 5626 5623 5618 5613 5612 5612 5613 5612 5614 5617 5618 5620 5621 5621 5618 5616 5615 5616 5614 5612 5610 5609 5607 5610 5610 5608 5606 5604 5601 5599 5597
5552 5550 5542 5538 5537 5559 5588 5585 5622 5643 5650 5652 5646 5645 5637 5632 5626 5620 5615 5608 5601 5597 5595 5596 5595 5594 5594 5595 5597 5596 5597 5598 5597 5594 5594 5593 5594 5592 5588 5587 5587 5587 5587 5590 5593 5594 5592 5589 5589
5547 5550 5548 5539 5550 5574 5568 5580 5614 5632 5636 5637 5639 5633 5624 5616 5610 5602 5595 5589 5583 5579 5578 5577 5577 5576 5574 5573 5574 5573 5572 5572 5570 5568 5568 5568 5567 5566 5563 5564 5565 5568 5571 5572 5574 5578 5580 5578 5577
5538 5538 5554 5535 5523 5538 5572 5589 5606 5612 5614 5623 5613 5617 5607 5599 5592 5584 5577 5573 5566 5562 5559 5558 5558 5556 5555 5554 5553 5551 5549 5548 5547 5546 5545 5544 5543 5543 5543 5544 5546 5548 5551 5554 5555 5557 5559 5559 5561
5537 5544 5519 5509 5519 5527 5565 5576 5597 5601 5604 5608 5600 5594 5590 5586 5576 5568 5562 5554 5548 5544 5543 5541 5539 5538 5535 5532 5530 5529 5528 5526 5525 5525 5523 5522 5522 5522 5523 5525 5527 5529 5531 5533 5534 5538 5540 5543 5544
5521 5519 5525 5528 5524 5532 5545 5566 5603 5608 5604 5596 5596 5586 5582 5573 5564 5556 5546 5538 5532 5527 5524 5523 5520 5516 5512 5510 5509 5509 5508 5505 5505 5505 5503 5502 5503 5504 5505 5506 5508 5510 5513 5513 5514 5516 5521 5519 5520
5521 5521 5521 5509 5517 5523 5528 5555 5592 5589 5588 5592 5588 5584 5577 5564 5551 5541 5530 5520 5513 5509 5508 5505 5500 5496 5492 5491 5490 5491 5489 5487 5487 5486 5485 5485 5485 5486 5487 5488 5490 5492 5494 5495 5497 5498 5497 5498 5500